sat.trackr.live / text

‹ back to catalog

STARLINK-34018

NORAD 63836 · 2025-093A

PAYLOAD ACTIVE UNKNOWN

§ Identity

Operator
Country
US
Launch date
2025-05-07
Launch site
AFETR
Launch vehicle
Mass (kg)
RCS (m²)

Purposes: comms

External: N2YO · Heavens-Above · Gunter

§ Orbital elements

Epoch: 2026-09-19T18:37:09.777504Z

Period
94.27 min
Inclination
43.0029°
Eccentricity
0.0001998
Mean motion
15.27599871 rev/d
Perigee alt
481.6 km
Apogee alt
484.4 km
Semi-major
6,861.1 km
B*
5.6334e-4
RAAN
61.9369°
Arg perigee
264.7883°
Mean anomaly
95.2741°
Rev number
7,765

§ Raw data

STARLINK-340181 63836U 25093A   26262.77580761  .00015281  00000+0  56334-3 0  99942 63836  43.0029  61.9369 0001998 264.7883  95.2741 15.27599871 77652

JSON: /api/v1/satellites/63836 · /tle

For live sub-satellite position, see the globe view (requires WebGL).

§ Visibility from observer

Set your observer location to see the next 7 days of passes ≥ 10°. The values pass through the URL so the page stays shareable.

No JS? Fill the form by hand. The geolocation button needs JavaScript.